Regional Weather Roundup
Issued by NWS Newport/Morehead, NC

Current Version | Previous Version | Graphics & Text | Print | Product List | Glossary Off
Versions: 1 2 3 4 5 6 7 8 9 10 11 12 13 14 15 16 17 18 19 20 21 22 23 24 25 26 27 28 29 30 31 32 33 34 35 36 37 38 39 40 41 42 43 44 45 46 47 48 49 50

000
ASUS42 KMHX 272113
RWRMHX
WEATHER ROUNDUP FOR EASTERN NORTH CAROLINA
NATIONAL WEATHER SERVICE NEWPORT/MOREHEAD CITY NC
500 PM EDT THU AUG 27 2015

NOTE: "FAIR" INDICATES FEW OR NO CLOUDS BELOW 12,000 FEET
WITH NO SIGNIFICANT WEATHER AND/OR OBSTRUCTIONS TO VISIBILITY

NCZ015>017-031-032-045>047-102-103-272200-
NORTH COAST

CITY           SKY/WX    TMP DP  RH WIND       PRES   REMARKS
EDENTON        CLOUDY    75  65  70 NE6       30.07R
ELIZABETH CITY CLOUDY    77  64  64 NE12      30.06S
KITTY HAWK     CLOUDY    77  62  59 NE5       30.04S
MANTEO         PTSUNNY   76  63  64 NE10G17   30.05S

$$

NCZ045>047-081-094-103-104-272200-
CENTRAL COAST

CITY           SKY/WX    TMP DP  RH WIND       PRES   REMARKS
FRISCO         RAIN      74  71  91 E5        30.02R
SWANQUARTER    NOT AVBL

$$

NCZ095-097-098-100-101-272200-
SOUTHERN COAST

CITY           SKY/WX    TMP DP  RH WIND       PRES   REMARKS
BEAUFORT       LGT RAIN  76  74  93 NE9       30.00S
CEDAR ISLAND   NOT AVBL
JACKSONVILLE   CLOUDY    79  69  71 NE12      30.01S
PINEY ISLAND   CLOUDY   N/A N/A N/A NE21G29   30.01R
WILMINGTON     LGT RAIN  81  72  74 NE14      30.00S


$$

NCZ011>013-027>030-043-044-078>080-089-090>093-098-272200-
COASTAL PLAIN

CITY           SKY/WX    TMP DP  RH WIND       PRES   REMARKS
AHOSKIE        FAIR      77  60  55 N6        30.08R
CLINTON        PTSUNNY   76  67  72 NE10      30.05R
ELIZABETHTOWN  CLOUDY    77  69  74 NE3       30.03R
GOLDSBORO      CLOUDY    76  67  73 NE10      30.05R
GREENVILLE     CLOUDY    77  68  73 NE9       30.08R
HAVELOCK       CLOUDY    78  70  76 NE12      30.03R
KENANSVILLE      N/A     75  64  69 NE6       30.05S
KINSTON        PTSUNNY   77  66  69 MISG      30.06S
NEW BERN       PTSUNNY   78  68  71 NE13      30.04S
RICHLANDS      CLOUDY    77  64  65 N12       30.03R
ROCKY MOUNT    PTSUNNY   82  60  47 NE9       30.07S
WASHINGTON     PTSUNNY   73  65  77 NE8       30.06R
WHITEVILLE     PTSUNNY   76  71  83 N3        30.01S

$$

AMZ130-135-150-152-154-156-158-170-250-252-270-ANZ085-086-088-633-658-670-272200-
MARINE OBSERVATIONS

STATION/POSITION TIME  TEMP    WIND        PRES    WAVE   SWELL
                       AIR SEA DIR/SP/G            HT/PER HT/PER
                 (UTC) (F)     (DEG/KT/KT) (MB)    (FT/S) (FT/S)
CHESAPEAKE LIGHT 2100   75      50/ 11/ 12 1019.0
64 E VA BEACH    2050   77 80   30/ 14/ 17 1017.2    4/10   3/10
DUCK             2000           30/ 17/ 20   N/A
2 E DUCK         2011      78                N/A     5/ 5   2/11
OREGON INLET     2000           30/ 16/ 19   N/A
13E OREGON INLT  2100      79                N/A     5/ 6   2/13
HATTERAS CG      2000           50/ 11/ 18   N/A
DIAMOND BUOY     2050   78 82  110/ 10/ 12 1016.0    5/ 9   3/ 9
CAPE LOOKOUT     2100   79      60/ 22/ 24 1015.4
BEAUFORT LAB     2000           20/  7/ 11   N/A
30 SE NEW RVR IN 2008   81 82   50/ 14/ 19 1015.5
30 SE NEW RVR IN 2025      82                N/A     3/ 4   2/11
27 SE WRIGHTSVLE 2000   78 82   50/ 14/ 17   N/A
5 SE WRIGHTSVLE  2008   80 83   40/ 14/ 19 1015.3
225 S CAPE HAT   2050   80 84  140/  6/  8 1015.1    3/ 9   3/ 9
41 SE CHARLESTON 2050   82 85  320/  4/  6 1014.5    2/10   2/10

$$


USA.gov is the U.S. government's official web portal to all federal, state and local government web resources and services.